Hayden, CO

4:12 AM MST on December 12, 2017 (GMT -0700)
Yampa Valley

Weather History for KHDN - February, 2013

Change the Weather History Date:

Wednesday, February 27, 2013

  Actual Average Record
Temperature  
Mean Temperature 12 °F -  
Max Temperature 19 °F 37 °F 51 °F (1981)
Min Temperature 5 °F 13 °F -15 °F (1962)
Degree Days  
Heating Degree Days 53    
Moisture  
Dew Point 6 °F    
Average Humidity 79    
Maximum Humidity 100    
Minimum Humidity 58    
Precipitation  
Precipitation 0.00 in - - ()
Sea Level Pressure  
Sea Level Pressure 30.26 in    
Wind  
Wind Speed 3 mph (SSW)    
Max Wind Speed 10 mph    
Max Gust Speed -    
Visibility 8 miles    
Events      
Averages and records for this station are not official NWS values.
T = Trace of Precipitation, MM = Missing Value Source: NWS Daily Summary

Daily Weather History Graph

Daily Weather History Graph

Search for Another Location

Airport or City:

Trip Planner

Search our weather history database for the weather conditions in past years. The results will help you decide how hot, cold, wet, or windy it might be!

Date:

Astronomy

Feb. 27, 2013 Rise Set
Actual Time 6:45 AM MST 5:58 PM MST
Civil Twilight 6:17 AM MST 6:25 PM MST
Nautical Twilight 5:46 AM MST 6:57 PM MST
Astronomical Twilight 5:14 AM MST 7:29 PM MST
Moon 8:23 PM MST (2/27) 7:21 AM MST (2/27)
Length of Visible Light 12h 08m
Length of Day
11h 13m
Waning Gibbous, 96% of the Moon is Illuminated
Feb 27
Waning Gibbous
Mar 4
Last Quarter
Mar 11
New
Mar 19
First Quarter
Mar 27
Full

Hourly Weather History & Observations

Time (MST) Temp. Windchill Dew Point Humidity Pressure Visibility Wind Dir Wind Speed Gust Speed Precip Events Conditions
12:15 AM 12.2 °F 2.9 °F 8.6 °F 85% 30.17 in 10.0 mi NNW 5.8 mph - N/A   Partly Cloudy
12:35 AM 12.2 °F - 8.6 °F 85% 30.17 in 10.0 mi Calm Calm - N/A   Partly Cloudy
12:55 AM 8.6 °F - 5.0 °F 85% 30.18 in 10.0 mi Calm Calm - N/A   Clear
1:15 AM 8.6 °F 2.0 °F 6.8 °F 92% 30.18 in 10.0 mi SSW 3.5 mph - N/A   Clear
1:35 AM 10.4 °F 4.0 °F 8.6 °F 92% 30.18 in 10.0 mi WSW 3.5 mph - N/A   Clear
1:55 AM 8.6 °F - 8.6 °F 100% 30.18 in 10.0 mi Calm Calm - N/A   Clear
2:15 AM 8.6 °F 2.0 °F 6.8 °F 92% 30.18 in 10.0 mi NE 3.5 mph - N/A   Mostly Cloudy
2:35 AM 8.6 °F - 6.8 °F 92% 30.19 in 10.0 mi Calm Calm - N/A   Overcast
2:55 AM 8.6 °F - 6.8 °F 92% 30.19 in 10.0 mi Calm Calm - N/A   Overcast
3:15 AM 10.4 °F 4.0 °F 6.8 °F 85% 30.20 in 10.0 mi SE 3.5 mph - N/A   Overcast
3:35 AM 10.4 °F 2.2 °F 8.6 °F 92% 30.19 in 8.0 mi SSE 4.6 mph - N/A   Mostly Cloudy
3:55 AM 12.2 °F 6.1 °F 8.6 °F 85% 30.20 in 4.0 mi ESE 3.5 mph - N/A   Scattered Clouds
4:15 AM 10.4 °F - 8.6 °F 92% 30.21 in 9.0 mi Calm Calm - N/A   Scattered Clouds
4:35 AM 10.4 °F 2.2 °F 8.6 °F 92% 30.21 in 10.0 mi East 4.6 mph - N/A   Overcast
4:55 AM 10.4 °F - 8.6 °F 92% 30.22 in 5.0 mi Calm Calm - N/A   Overcast
5:15 AM 10.4 °F - 8.6 °F 92% 30.22 in 3.0 mi Calm Calm - N/A   Overcast
5:35 AM 10.4 °F 4.0 °F 6.8 °F 85% 30.23 in 3.0 mi ESE 3.5 mph - N/A   Mostly Cloudy
5:55 AM 8.6 °F - 3.2 °F 79% 30.23 in 4.0 mi Calm Calm - N/A   Mostly Cloudy
6:15 AM 8.6 °F - 6.8 °F 92% 30.24 in 3.0 mi Calm Calm - N/A   Mostly Cloudy
6:35 AM 8.6 °F - 6.8 °F 92% 30.24 in 5.0 mi Calm Calm - N/A   Mostly Cloudy
6:55 AM 8.6 °F - 6.8 °F 92% 30.25 in 4.0 mi Calm Calm - N/A   Mostly Cloudy
7:15 AM 6.8 °F - 1.4 °F 79% 30.25 in 7.0 mi Calm Calm - N/A   Partly Cloudy
7:35 AM 5.0 °F - 1.4 °F 85% 30.26 in 6.0 mi Calm Calm - N/A   Clear
7:55 AM 6.8 °F - 5.0 °F 92% 30.27 in 10.0 mi Calm Calm - N/A   Mostly Cloudy
8:15 AM 8.6 °F - 6.8 °F 92% 30.28 in 10.0 mi Calm Calm - N/A   Overcast
8:35 AM 8.6 °F 2.0 °F 5.0 °F 85% 30.28 in 10.0 mi ESE 3.5 mph - N/A   Mostly Cloudy
9:15 AM 8.6 °F 2.0 °F 5.0 °F 85% 30.29 in 10.0 mi SE 3.5 mph - N/A   Clear
9:35 AM 15.8 °F - 8.6 °F 73% 30.29 in 10.0 mi Calm Calm - N/A   Clear
9:55 AM 12.2 °F - 6.8 °F 79% 30.29 in 10.0 mi Calm Calm - N/A   Clear
10:15 AM 12.2 °F - 5.0 °F 73% 30.29 in 10.0 mi Calm Calm - N/A   Clear
10:35 AM 6.8 °F -0.1 °F 3.2 °F 85% 30.29 in 10.0 mi WSW 3.5 mph - N/A   Clear
10:55 AM 8.6 °F 0.1 °F 3.2 °F 79% 30.29 in 10.0 mi WSW 4.6 mph - N/A   Clear
11:15 AM 8.6 °F 2.0 °F 6.8 °F 92% 30.29 in 10.0 mi WNW 3.5 mph - N/A   Clear
11:35 AM 10.4 °F 2.2 °F 6.8 °F 85% 30.29 in 10.0 mi West 4.6 mph - N/A   Clear
11:55 AM 12.2 °F 4.3 °F 8.6 °F 85% 30.30 in 10.0 mi NW 4.6 mph - N/A   Clear
12:15 PM 12.2 °F 4.3 °F 8.6 °F 85% 30.29 in 10.0 mi NW 4.6 mph - N/A   Clear
12:35 PM 14.0 °F 6.5 °F 8.6 °F 79% 30.29 in 10.0 mi WNW 4.6 mph - N/A   Clear
12:55 PM 15.8 °F 10.2 °F 10.4 °F 79% 30.29 in 10.0 mi West 3.5 mph - N/A   Clear
1:35 PM 17.6 °F 10.7 °F 10.4 °F 73% 30.28 in 10.0 mi West 4.6 mph - N/A   Clear
1:55 PM 17.6 °F 12.3 °F 10.4 °F 73% 30.28 in 10.0 mi WNW 3.5 mph - N/A   Clear
2:15 PM 17.6 °F 9.3 °F 10.4 °F 73% 30.27 in 10.0 mi West 5.8 mph - N/A   Clear
2:35 PM 17.6 °F 12.3 °F 8.6 °F 68% 30.27 in 10.0 mi West 3.5 mph - N/A   Clear
2:55 PM 19.4 °F 9.5 °F 10.4 °F 68% 30.27 in 10.0 mi SW 8.1 mph - N/A   Clear
3:15 PM 17.6 °F 10.7 °F 8.6 °F 68% 30.27 in 5.0 mi WSW 4.6 mph - N/A   Clear
3:35 PM 19.4 °F 11.5 °F 8.6 °F 63% 30.28 in 10.0 mi West 5.8 mph - N/A   Clear
3:55 PM 17.6 °F 9.3 °F 8.6 °F 68% 30.27 in 10.0 mi SW 5.8 mph - N/A   Clear
4:15 PM 17.6 °F 10.7 °F 8.6 °F 68% 30.27 in 10.0 mi WSW 4.6 mph - N/A   Clear
4:35 PM 17.6 °F 10.7 °F 6.8 °F 63% 30.28 in 5.0 mi WSW 4.6 mph - N/A   Clear
4:55 PM 17.6 °F - 6.8 °F 63% 30.28 in 5.0 mi Calm Calm - N/A   Clear
5:15 PM 17.6 °F - 6.8 °F 63% 30.28 in 5.0 mi Calm Calm - N/A   Clear
5:35 PM 19.4 °F - 6.8 °F 58% 30.28 in 5.0 mi Calm Calm - N/A   Clear
5:55 PM 15.8 °F 10.2 °F 3.2 °F 58% 30.29 in 6.0 mi SSE 3.5 mph - N/A   Clear
6:15 PM 12.2 °F 6.1 °F 5.0 °F 73% 30.29 in 5.0 mi South 3.5 mph - N/A   Clear
6:35 PM 15.8 °F 10.2 °F 6.8 °F 68% 30.29 in 7.0 mi South 3.5 mph - N/A   Clear
7:15 PM 8.6 °F 0.1 °F -0.4 °F 67% 30.29 in 8.0 mi WNW 4.6 mph - N/A   Clear
7:35 PM 8.6 °F - 1.4 °F 73% 30.29 in 6.0 mi Calm Calm - N/A   Clear
7:55 PM 10.4 °F - 1.4 °F 67% 30.29 in 7.0 mi Calm Calm - N/A   Clear
8:15 PM 10.4 °F - 3.2 °F 73% 30.29 in 8.0 mi Calm Calm - N/A   Clear
8:35 PM 10.4 °F 2.2 °F 5.0 °F 79% 30.28 in 10.0 mi SSE 4.6 mph - N/A   Clear
8:55 PM 8.6 °F -1.3 °F -2.2 °F 62% 30.29 in 10.0 mi South 5.8 mph - N/A   Partly Cloudy
9:15 PM 10.4 °F -1.5 °F 3.2 °F 73% 30.29 in 10.0 mi SSE 8.1 mph - N/A   Clear
9:35 PM 8.6 °F -3.7 °F 3.2 °F 79% 30.29 in 10.0 mi SSE 8.1 mph - N/A   Clear
10:15 PM 8.6 °F -1.3 °F -0.4 °F 67% 30.29 in 10.0 mi SE 5.8 mph - N/A   Clear
10:35 PM 6.8 °F -5.9 °F -0.4 °F 72% 30.29 in 10.0 mi South 8.1 mph - N/A   Clear
11:15 PM 8.6 °F -3.7 °F -0.4 °F 67% 30.30 in 10.0 mi SSE 8.1 mph - N/A   Clear
11:35 PM 6.8 °F -7.8 °F -2.2 °F 67% 30.30 in 10.0 mi SSE 10.4 mph - N/A   Clear
11:55 PM 6.8 °F -6.9 °F -2.2 °F 67% 30.31 in 10.0 mi South 9.2 mph - N/A   Clear